Time,TemperatureF,DewpointF,PressureIn,WindDirection,WindDirectionDegrees,WindSpeedMPH,WindSpeedGustMPH,Humidity,HourlyPrecipIn,Conditions,Clouds,dailyrainin,SoftwareType,DateUTC
2013-05-09 00:03:00,60.4,24.5,29.82,SSE,161,0.0,0.0,25,0.00,,CLR,0.00,VWS V14.01,2013-05-09 05:03:00,
2013-05-09 00:08:00,60.4,24.5,29.82,SSE,161,0.0,0.0,25,0.00,,CLR,0.00,VWS V14.01,2013-05-09 05:08:00,
2013-05-09 00:14:00,60.3,24.3,29.82,SSE,161,0.0,0.0,25,0.00,,CLR,0.00,VWS V14.01,2013-05-09 05:14:00,
2013-05-09 00:19:00,60.1,24.2,29.82,SSE,161,0.0,0.0,25,0.00,,CLR,0.00,VWS V14.01,2013-05-09 05:19:00,
2013-05-09 00:24:00,59.9,24.0,29.82,SSE,161,0.0,0.0,25,0.00,,CLR,0.00,VWS V14.01,2013-05-09 05:24:00,
2013-05-09 00:29:00,59.7,23.9,29.82,SSE,162,0.0,0.0,25,0.00,,CLR,0.00,VWS V14.01,2013-05-09 05:29:00,
2013-05-09 00:34:00,59.5,24.6,29.82,SSE,161,0.0,0.0,26,0.00,,CLR,0.00,VWS V14.01,2013-05-09 05:34:00,
2013-05-09 00:39:00,59.4,23.6,29.82,SSE,161,0.0,0.0,25,0.00,,CLR,0.00,VWS V14.01,2013-05-09 05:39:00,
2013-05-09 00:44:00,59.4,24.5,29.82,SSE,161,0.0,0.0,26,0.00,,CLR,0.00,VWS V14.01,2013-05-09 05:44:00,
2013-05-09 00:49:00,59.2,24.3,29.82,SSE,161,0.0,0.0,26,0.00,,CLR,0.00,VWS V14.01,2013-05-09 05:49:00,
2013-05-09 00:55:00,59.0,24.2,29.82,SSE,161,0.0,0.0,26,0.00,,CLR,0.00,VWS V14.01,2013-05-09 05:55:00,
2013-05-09 01:00:00,58.8,24.0,29.82,SSE,161,0.0,0.0,26,0.00,,CLR,0.00,VWS V14.01,2013-05-09 06:00:00,
2013-05-09 01:06:00,58.6,23.9,29.82,SSE,161,0.0,0.0,26,0.00,,CLR,0.00,VWS V14.01,2013-05-09 06:06:00,
2013-05-09 01:12:00,58.5,23.7,29.82,SSE,161,0.0,0.0,26,0.00,,CLR,0.00,VWS V14.01,2013-05-09 06:12:00,
2013-05-09 01:17:00,58.3,24.5,29.79,SSE,161,0.0,0.0,27,0.00,,CLR,0.00,VWS V14.01,2013-05-09 06:17:00,
2013-05-09 01:22:00,58.1,24.3,29.79,SSE,161,0.0,0.0,27,0.00,,CLR,0.00,VWS V14.01,2013-05-09 06:22:00,
2013-05-09 01:27:00,57.9,24.2,29.79,SSE,161,0.0,0.0,27,0.00,,CLR,0.00,VWS V14.01,2013-05-09 06:27:00,
2013-05-09 01:32:00,57.9,25.0,29.79,SSE,161,0.0,0.0,28,0.00,,CLR,0.00,VWS V14.01,2013-05-09 06:32:00,
2013-05-09 01:37:00,57.7,24.9,29.79,SSE,159,0.0,0.0,28,0.00,,CLR,0.00,VWS V14.01,2013-05-09 06:37:00,
2013-05-09 01:42:00,57.7,25.7,29.79,SSE,158,0.0,0.0,29,0.00,,CLR,0.00,VWS V14.01,2013-05-09 06:42:00,
2013-05-09 01:48:00,57.6,25.6,29.79,SSE,159,0.0,0.0,29,0.00,,CLR,0.00,VWS V14.01,2013-05-09 06:48:00,
2013-05-09 01:53:00,57.4,25.4,29.79,SSE,159,0.0,0.0,29,0.00,,CLR,0.00,VWS V14.01,2013-05-09 06:53:00,
2013-05-09 01:58:00,57.2,25.2,29.79,SSE,159,0.0,0.0,29,0.00,,CLR,0.00,VWS V14.01,2013-05-09 06:58:00,
2013-05-09 02:03:00,57.2,25.2,29.79,SSE,158,0.0,0.0,29,0.00,,CLR,0.00,VWS V14.01,2013-05-09 07:03:00,
2013-05-09 02:09:00,57.2,25.2,29.79,SSE,159,0.0,0.0,29,0.00,,CLR,0.00,VWS V14.01,2013-05-09 07:09:00,
2013-05-09 02:15:00,57.0,25.1,29.79,SSE,159,0.0,0.0,29,0.00,,CLR,0.00,VWS V14.01,2013-05-09 07:15:00,
2013-05-09 02:20:00,57.0,25.1,29.79,South,169,0.0,0.0,29,0.00,,CLR,0.00,VWS V14.01,2013-05-09 07:20:00,
2013-05-09 02:26:00,57.4,24.6,29.79,SSW,192,0.0,0.0,28,0.00,,CLR,0.00,VWS V14.01,2013-05-09 07:26:00,
2013-05-09 02:32:00,57.9,25.0,29.79,South,190,3.1,3.1,28,0.00,,CLR,0.00,VWS V14.01,2013-05-09 07:32:00,
2013-05-09 02:37:00,58.1,25.2,29.79,South,185,0.0,0.0,28,0.00,,CLR,0.00,VWS V14.01,2013-05-09 07:37:00,
2013-05-09 02:43:00,58.1,25.2,29.79,South,184,0.0,0.0,28,0.00,,CLR,0.00,VWS V14.01,2013-05-09 07:43:00,
2013-05-09 02:48:00,58.1,25.2,29.82,South,184,0.0,0.0,28,0.00,,CLR,0.00,VWS V14.01,2013-05-09 07:48:00,
2013-05-09 02:55:00,57.9,25.0,29.82,South,184,0.0,0.0,28,0.00,,CLR,0.00,VWS V14.01,2013-05-09 07:55:00,
2013-05-09 03:00:00,57.7,24.9,29.79,South,184,0.0,0.0,28,0.00,,CLR,0.00,VWS V14.01,2013-05-09 08:00:00,
2013-05-09 03:05:00,57.7,24.9,29.79,South,184,0.0,0.0,28,0.00,,CLR,0.00,VWS V14.01,2013-05-09 08:05:00,
2013-05-09 03:11:00,57.6,25.6,29.79,South,184,0.0,0.0,29,0.00,,CLR,0.00,VWS V14.01,2013-05-09 08:11:00,
2013-05-09 03:16:00,57.6,25.6,29.79,South,184,0.0,0.0,29,0.00,,CLR,0.00,VWS V14.01,2013-05-09 08:16:00,
2013-05-09 03:21:00,57.4,26.2,29.79,South,184,0.0,0.0,30,0.00,,CLR,0.00,VWS V14.01,2013-05-09 08:21:00,
2013-05-09 03:26:00,57.0,26.7,29.79,SW,218,0.0,0.0,31,0.00,,CLR,0.00,VWS V14.01,2013-05-09 08:26:00,
2013-05-09 03:31:00,57.2,26.9,29.82,SSW,202,0.0,0.0,31,0.00,,CLR,0.00,VWS V14.01,2013-05-09 08:31:00,
2013-05-09 03:36:00,57.2,26.9,29.82,SW,220,0.0,0.0,31,0.00,,CLR,0.00,VWS V14.01,2013-05-09 08:36:00,
2013-05-09 03:42:00,57.6,27.2,29.82,SW,220,0.0,0.0,31,0.00,,CLR,0.00,VWS V14.01,2013-05-09 08:42:00,
2013-05-09 03:47:00,57.6,27.2,29.79,SW,220,0.0,0.0,31,0.00,,CLR,0.00,VWS V14.01,2013-05-09 08:47:00,
2013-05-09 03:52:00,57.6,28.0,29.79,SW,220,0.0,0.0,32,0.00,,CLR,0.00,VWS V14.01,2013-05-09 08:52:00,
2013-05-09 03:57:00,57.6,28.0,29.79,SW,220,0.0,0.0,32,0.00,,CLR,0.00,VWS V14.01,2013-05-09 08:57:00,
2013-05-09 04:03:00,57.7,28.9,29.79,SW,220,0.0,0.0,33,0.00,,CLR,0.00,VWS V14.01,2013-05-09 09:03:00,
2013-05-09 04:08:00,57.7,29.6,29.79,SW,220,0.0,0.0,34,0.00,,CLR,0.00,VWS V14.01,2013-05-09 09:08:00,
2013-05-09 04:14:00,57.7,29.6,29.79,SW,220,0.0,0.0,34,0.00,,CLR,0.00,VWS V14.01,2013-05-09 09:14:00,
2013-05-09 04:19:00,57.7,29.6,29.79,SW,220,0.0,0.0,34,0.00,,CLR,0.00,VWS V14.01,2013-05-09 09:19:00,
2013-05-09 04:25:00,57.7,30.3,29.79,SW,220,0.0,0.0,35,0.00,,CLR,0.00,VWS V14.01,2013-05-09 09:25:00,
2013-05-09 04:30:00,57.6,30.1,29.79,SW,220,0.0,0.0,35,0.00,,CLR,0.00,VWS V14.01,2013-05-09 09:30:00,
2013-05-09 04:35:00,57.6,30.1,29.79,SW,220,0.0,0.0,35,0.00,,CLR,0.00,VWS V14.01,2013-05-09 09:35:00,
2013-05-09 04:40:00,57.6,30.1,29.79,SW,220,0.0,0.0,35,0.00,,CLR,0.00,VWS V14.01,2013-05-09 09:40:00,
2013-05-09 04:46:00,57.6,30.8,29.79,SW,220,0.0,0.0,36,0.00,,CLR,0.00,VWS V14.01,2013-05-09 09:46:00,
2013-05-09 04:51:00,57.4,30.7,29.79,SW,220,0.0,0.0,36,0.00,,CLR,0.00,VWS V14.01,2013-05-09 09:51:00,
2013-05-09 04:57:00,57.2,30.5,29.79,SW,220,0.0,0.0,36,0.00,,CLR,0.00,VWS V14.01,2013-05-09 09:57:00,
2013-05-09 05:02:00,57.4,30.7,29.79,SW,220,0.0,0.0,36,0.00,,CLR,0.00,VWS V14.01,2013-05-09 10:02:00,
2013-05-09 05:08:00,57.4,30.7,29.79,SW,219,0.0,0.0,36,0.00,,CLR,0.00,VWS V14.01,2013-05-09 10:08:00,
2013-05-09 05:14:00,57.7,31.0,29.79,SW,219,0.0,0.0,36,0.00,,CLR,0.00,VWS V14.01,2013-05-09 10:14:00,
2013-05-09 05:19:00,57.7,31.0,29.79,SW,219,0.0,0.0,36,0.00,,CLR,0.00,VWS V14.01,2013-05-09 10:19:00,
2013-05-09 05:25:00,58.3,30.8,29.79,SW,220,0.0,0.0,35,0.00,,CLR,0.00,VWS V14.01,2013-05-09 10:25:00,
2013-05-09 05:30:00,58.5,30.9,29.79,SW,220,0.0,0.0,35,0.00,,CLR,0.00,VWS V14.01,2013-05-09 10:30:00,
2013-05-09 05:35:00,58.6,31.1,29.79,SW,220,0.0,0.0,35,0.00,,CLR,0.00,VWS V14.01,2013-05-09 10:35:00,
2013-05-09 05:40:00,58.6,31.1,29.79,SW,220,0.0,0.0,35,0.00,,CLR,0.00,VWS V14.01,2013-05-09 10:40:00,
2013-05-09 05:45:00,58.5,30.9,29.79,SW,220,0.0,0.0,35,0.00,,CLR,0.00,VWS V14.01,2013-05-09 10:45:00,
2013-05-09 05:50:00,58.5,30.9,29.79,SW,220,0.0,0.0,35,0.00,,CLR,0.00,VWS V14.01,2013-05-09 10:50:00,
2013-05-09 05:55:00,58.5,30.9,29.79,North,8,0.0,0.0,35,0.00,,CLR,0.00,VWS V14.01,2013-05-09 10:55:00,
2013-05-09 06:01:00,58.1,31.3,29.79,NNE,15,0.0,0.0,36,0.00,,BKN100,0.00,VWS V14.01,2013-05-09 11:01:00,
2013-05-09 06:12:00,57.7,31.7,29.79,NNE,15,0.0,0.0,37,0.00,,BKN100,0.00,VWS V14.01,2013-05-09 11:12:00,
2013-05-09 06:17:00,57.6,31.5,29.79,NNE,18,0.0,0.0,37,0.00,,BKN100,0.00,VWS V14.01,2013-05-09 11:17:00,
2013-05-09 06:22:00,57.6,31.5,29.79,NNE,18,0.0,0.0,37,0.00,,BKN100,0.00,VWS V14.01,2013-05-09 11:22:00,
2013-05-09 06:28:00,57.9,31.8,29.79,SW,217,0.0,0.0,37,0.00,,BKN100,0.00,VWS V14.01,2013-05-09 11:28:00,
2013-05-09 06:33:00,58.5,33.0,29.79,South,190,0.0,2.7,38,0.00,,BKN100,0.00,VWS V14.01,2013-05-09 11:33:00,
2013-05-09 06:39:00,58.5,32.3,29.79,South,183,0.0,0.0,37,0.00,,BKN100,0.00,VWS V14.01,2013-05-09 11:39:00,
2013-05-09 06:44:00,58.5,32.3,29.82,South,185,0.0,0.0,37,0.00,,BKN100,0.00,VWS V14.01,2013-05-09 11:44:00,
2013-05-09 06:50:00,58.6,32.5,29.82,SSW,211,0.0,0.0,37,0.00,,BKN100,0.00,VWS V14.01,2013-05-09 11:50:00,
2013-05-09 06:55:00,58.8,32.6,29.82,SSW,211,0.0,0.0,37,0.00,,BKN100,0.00,VWS V14.01,2013-05-09 11:55:00,
2013-05-09 07:01:00,59.2,33.0,29.79,SSW,211,0.0,0.0,37,0.00,,BKN100,0.00,VWS V14.01,2013-05-09 12:01:00,
2013-05-09 07:07:00,59.4,33.1,29.79,SSW,211,0.0,0.0,37,0.00,,BKN100,0.00,VWS V14.01,2013-05-09 12:07:00,
2013-05-09 07:12:00,59.5,32.6,29.79,SSW,211,0.0,0.0,36,0.00,,BKN100,0.00,VWS V14.01,2013-05-09 12:12:00,
2013-05-09 07:18:00,59.9,32.9,29.79,SSW,211,0.0,0.0,36,0.00,,BKN100,0.00,VWS V14.01,2013-05-09 12:18:00,
2013-05-09 07:23:00,60.1,33.1,29.79,SSW,211,0.0,0.0,36,0.00,,BKN100,0.00,VWS V14.01,2013-05-09 12:23:00,
2013-05-09 07:29:00,60.4,33.4,29.79,SW,231,2.2,5.4,36,0.00,,BKN100,0.00,VWS V14.01,2013-05-09 12:29:00,
2013-05-09 07:35:00,60.6,33.5,29.79,WSW,244,0.0,0.0,36,0.00,,BKN100,0.00,VWS V14.01,2013-05-09 12:35:00,
2013-05-09 07:40:00,61.0,33.2,29.79,WSW,244,0.0,0.0,35,0.00,,BKN100,0.00,VWS V14.01,2013-05-09 12:40:00,
2013-05-09 07:46:00,61.7,33.8,29.82,SW,231,3.6,4.0,35,0.00,,BKN100,0.00,VWS V14.01,2013-05-09 12:46:00,
2013-05-09 07:51:00,62.4,33.7,29.82,SW,220,0.0,0.0,34,0.00,,BKN100,0.00,VWS V14.01,2013-05-09 12:51:00,
2013-05-09 07:56:00,62.6,33.9,29.82,SW,231,0.0,0.0,34,0.00,,BKN100,0.00,VWS V14.01,2013-05-09 12:56:00,
2013-05-09 08:01:00,63.0,33.4,29.82,SW,228,0.0,0.0,33,0.00,,BKN100,0.00,VWS V14.01,2013-05-09 13:01:00,
2013-05-09 08:07:00,63.5,34.7,29.82,SW,227,0.0,0.0,34,0.00,,BKN100,0.00,VWS V14.01,2013-05-09 13:07:00,
2013-05-09 08:12:00,63.9,34.2,29.82,SW,227,0.0,0.0,33,0.00,,BKN100,0.00,VWS V14.01,2013-05-09 13:12:00,
2013-05-09 08:17:00,64.2,33.0,29.82,SW,227,0.0,0.0,31,0.00,,BKN100,0.00,VWS V14.01,2013-05-09 13:17:00,
2013-05-09 08:22:00,64.8,33.5,29.82,WSW,248,0.0,0.0,31,0.00,,BKN100,0.00,VWS V14.01,2013-05-09 13:22:00,
2013-05-09 08:28:00,65.5,32.4,29.82,North,5,0.0,0.0,29,0.00,,BKN100,0.00,VWS V14.01,2013-05-09 13:28:00,
2013-05-09 08:33:00,66.0,32.0,29.79,North,9,0.0,0.0,28,0.00,,BKN100,0.00,VWS V14.01,2013-05-09 13:33:00,
2013-05-09 08:39:00,66.4,32.3,29.79,NE,42,0.0,0.0,28,0.00,,BKN100,0.00,VWS V14.01,2013-05-09 13:39:00,
2013-05-09 08:45:00,66.7,30.8,29.82,NNE,12,0.0,0.0,26,0.00,,BKN100,0.00,VWS V14.01,2013-05-09 13:45:00,
2013-05-09 08:50:00,66.7,30.8,29.82,North,2,0.0,0.0,26,0.00,,BKN100,0.00,VWS V14.01,2013-05-09 13:50:00,
2013-05-09 08:55:00,66.6,30.6,29.82,North,0,0.0,0.0,26,0.00,,BKN100,0.00,VWS V14.01,2013-05-09 13:55:00,
2013-05-09 09:00:00,66.6,30.6,29.79,NNE,20,0.0,4.0,26,0.00,,BKN100,0.00,VWS V14.01,2013-05-09 14:00:00,
2013-05-09 09:06:00,66.9,31.9,29.79,ENE,62,0.0,0.0,27,0.00,,CLR,0.00,VWS V14.01,2013-05-09 14:06:00,
2013-05-09 09:11:00,67.3,31.2,29.79,East,92,0.0,0.0,26,0.00,,CLR,0.00,VWS V14.01,2013-05-09 14:11:00,
2013-05-09 09:16:00,67.6,31.6,29.79,NE,36,0.0,0.0,26,0.00,,CLR,0.00,VWS V14.01,2013-05-09 14:16:00,
2013-05-09 09:21:00,68.0,30.9,29.79,NE,37,0.0,0.0,25,0.00,,CLR,0.00,VWS V14.01,2013-05-09 14:21:00,
2013-05-09 09:26:00,68.4,31.2,29.79,ESE,106,3.1,3.1,25,0.00,,CLR,0.00,VWS V14.01,2013-05-09 14:26:00,
2013-05-09 09:32:00,68.4,31.2,29.79,North,9,0.0,0.0,25,0.00,,CLR,0.00,VWS V14.01,2013-05-09 14:32:00,
2013-05-09 09:38:00,68.5,30.4,29.79,ESE,106,0.0,0.0,24,0.00,,CLR,0.00,VWS V14.01,2013-05-09 14:38:00,
2013-05-09 09:43:00,68.7,30.5,29.79,SE,127,0.0,0.0,24,0.00,,CLR,0.00,VWS V14.01,2013-05-09 14:43:00,
2013-05-09 09:48:00,68.9,29.6,29.79,SSE,153,0.0,0.0,23,0.00,,CLR,0.00,VWS V14.01,2013-05-09 14:48:00,
2013-05-09 09:53:00,68.9,30.6,29.79,SSE,166,0.0,0.0,24,0.00,,CLR,0.00,VWS V14.01,2013-05-09 14:53:00,
2013-05-09 09:58:00,69.3,31.0,29.79,ESE,114,0.0,0.0,24,0.00,,CLR,0.00,VWS V14.01,2013-05-09 14:58:00,
2013-05-09 10:04:00,69.8,30.4,29.79,SE,125,0.0,0.0,23,0.00,,BKN100,0.00,VWS V14.01,2013-05-09 15:04:00,
2013-05-09 10:10:00,70.0,30.5,29.79,WSW,239,0.0,0.0,23,0.00,,BKN100,0.00,VWS V14.01,2013-05-09 15:10:00,
2013-05-09 10:15:00,70.2,30.7,29.82,South,169,0.0,0.0,23,0.00,,BKN100,0.00,VWS V14.01,2013-05-09 15:15:00,
2013-05-09 10:21:00,70.3,30.8,29.82,SSE,152,0.0,0.0,23,0.00,,BKN100,0.00,VWS V14.01,2013-05-09 15:21:00,
2013-05-09 10:27:00,70.5,29.9,29.82,South,171,0.0,0.0,22,0.00,,BKN100,0.00,VWS V14.01,2013-05-09 15:27:00,
2013-05-09 10:32:00,70.7,31.1,29.82,SE,145,0.0,0.0,23,0.00,,BKN100,0.00,VWS V14.01,2013-05-09 15:32:00,
2013-05-09 10:38:00,70.9,30.2,29.82,SSW,204,4.9,4.9,22,0.00,,BKN100,0.00,VWS V14.01,2013-05-09 15:38:00,
2013-05-09 10:43:00,70.5,31.0,29.82,SSW,198,0.0,0.0,23,0.00,,BKN100,0.00,VWS V14.01,2013-05-09 15:43:00,
2013-05-09 10:49:00,70.3,30.8,29.82,SW,231,4.9,4.9,23,0.00,,BKN100,0.00,VWS V14.01,2013-05-09 15:49:00,
2013-05-09 10:55:00,70.2,30.7,29.82,SW,225,3.6,4.5,23,0.00,,BKN100,0.00,VWS V14.01,2013-05-09 15:55:00,
2013-05-09 11:00:00,69.8,30.4,29.82,SW,216,2.7,2.7,23,0.00,,BKN100,0.00,VWS V14.01,2013-05-09 16:00:00,
2013-05-09 11:06:00,69.4,30.1,29.82,SSW,196,0.0,0.0,23,0.00,,CLR,0.00,VWS V14.01,2013-05-09 16:06:00,
2013-05-09 11:11:00,69.3,29.9,29.82,SW,236,0.0,0.0,23,0.00,,CLR,0.00,VWS V14.01,2013-05-09 16:11:00,
2013-05-09 11:16:00,69.1,29.8,29.79,WSW,238,0.0,0.0,23,0.00,,CLR,0.00,VWS V14.01,2013-05-09 16:16:00,
2013-05-09 11:21:00,69.1,29.8,29.79,WSW,238,0.0,0.0,23,0.00,,CLR,0.00,VWS V14.01,2013-05-09 16:21:00,
2013-05-09 11:27:00,69.1,29.8,29.79,WSW,238,0.0,0.0,23,0.00,,CLR,0.00,VWS V14.01,2013-05-09 16:27:00,
2013-05-09 11:32:00,68.9,29.6,29.79,WSW,238,0.0,0.0,23,0.00,,CLR,0.00,VWS V14.01,2013-05-09 16:32:00,
2013-05-09 11:38:00,68.9,29.6,29.79,WSW,247,0.0,0.0,23,0.00,,CLR,0.00,VWS V14.01,2013-05-09 16:38:00,
2013-05-09 11:43:00,68.9,30.6,29.79,West,273,0.0,0.0,24,0.00,,CLR,0.00,VWS V14.01,2013-05-09 16:43:00,
2013-05-09 11:48:00,68.9,30.6,29.79,North,8,0.0,0.0,24,0.00,,CLR,0.00,VWS V14.01,2013-05-09 16:48:00,
2013-05-09 11:54:00,68.7,30.5,29.79,NNE,18,0.0,0.0,24,0.00,,CLR,0.00,VWS V14.01,2013-05-09 16:54:00,
2013-05-09 11:59:00,68.7,30.5,29.79,NNE,18,0.0,0.0,24,0.00,,CLR,0.00,VWS V14.01,2013-05-09 16:59:00,
2013-05-09 12:04:00,68.7,30.5,29.79,NNE,18,0.0,0.0,24,0.00,,SCT120,0.00,VWS V14.01,2013-05-09 17:04:00,
2013-05-09 12:10:00,68.5,30.4,29.79,NNE,18,0.0,0.0,24,0.00,,SCT120,0.00,VWS V14.01,2013-05-09 17:10:00,
2013-05-09 12:15:00,68.5,30.4,29.79,NNE,18,0.0,0.0,24,0.00,,SCT120,0.00,VWS V14.01,2013-05-09 17:15:00,
2013-05-09 12:20:00,68.5,30.4,29.79,NNW,341,0.0,0.0,24,0.00,,SCT120,0.00,VWS V14.01,2013-05-09 17:20:00,
2013-05-09 12:25:00,68.5,30.4,29.79,WSW,249,0.0,0.0,24,0.00,,SCT120,0.00,VWS V14.01,2013-05-09 17:25:00,
2013-05-09 12:30:00,68.5,30.4,29.79,West,266,0.0,0.0,24,0.00,,SCT120,0.00,VWS V14.01,2013-05-09 17:30:00,
2013-05-09 12:35:00,68.4,31.2,29.79,WNW,291,0.0,0.0,25,0.00,,SCT120,0.00,VWS V14.01,2013-05-09 17:35:00,
2013-05-09 12:41:00,67.6,31.6,29.79,NW,313,4.0,4.0,26,0.00,,SCT120,0.00,VWS V14.01,2013-05-09 17:41:00,
2013-05-09 12:47:00,66.9,32.8,29.79,NW,304,4.0,5.8,28,0.00,,SCT120,0.00,VWS V14.01,2013-05-09 17:47:00,
2013-05-09 12:52:00,66.2,33.9,29.79,NNW,333,8.1,8.3,30,0.00,,SCT120,0.00,VWS V14.01,2013-05-09 17:52:00,
2013-05-09 12:58:00,65.5,36.4,29.79,North,357,7.6,10.1,34,0.00,,SCT120,0.00,VWS V14.01,2013-05-09 17:58:00,
2013-05-09 13:03:00,64.8,36.5,29.79,NNW,345,2.7,6.3,35,0.00,,OVC100,0.00,VWS V14.01,2013-05-09 18:03:00,
2013-05-09 13:09:00,64.4,37.6,29.79,NW,326,7.6,8.1,37,0.00,,OVC100,0.00,VWS V14.01,2013-05-09 18:09:00,
2013-05-09 13:15:00,63.7,37.6,29.82,NNE,14,2.7,5.8,38,0.00,,OVC100,0.00,VWS V14.01,2013-05-09 18:15:00,
2013-05-09 13:20:00,63.5,38.8,29.82,NNW,333,2.7,6.3,40,0.00,,OVC100,0.00,VWS V14.01,2013-05-09 18:20:00,
2013-05-09 13:26:00,63.1,39.1,29.82,NW,320,4.9,6.3,41,0.00,,OVC100,0.00,VWS V14.01,2013-05-09 18:26:00,
2013-05-09 13:32:00,63.0,38.3,29.82,NNW,337,5.8,8.1,40,0.00,,OVC100,0.00,VWS V14.01,2013-05-09 18:32:00,
2013-05-09 13:37:00,62.6,38.0,29.82,North,2,0.0,0.0,40,0.00,,OVC100,0.00,VWS V14.01,2013-05-09 18:37:00,
2013-05-09 13:42:00,62.6,38.6,29.82,North,3,3.1,4.0,41,0.00,,OVC100,0.00,VWS V14.01,2013-05-09 18:42:00,
2013-05-09 13:47:00,62.2,37.6,29.82,North,353,5.4,6.3,40,0.00,,OVC100,0.00,VWS V14.01,2013-05-09 18:47:00,
2013-05-09 13:52:00,62.1,36.8,29.82,NNE,19,7.6,10.1,39,0.00,,OVC100,0.00,VWS V14.01,2013-05-09 18:52:00,
2013-05-09 13:58:00,61.9,38.6,29.82,NNE,12,6.3,6.3,42,0.00,,OVC100,0.00,VWS V14.01,2013-05-09 18:58:00,
2013-05-09 14:03:00,61.7,40.2,29.82,NNE,14,4.9,5.4,45,0.00,,OVC090,0.00,VWS V14.01,2013-05-09 19:03:00,
2013-05-09 14:08:00,61.2,39.1,29.82,NNE,14,2.7,4.5,44,0.00,,OVC090,0.00,VWS V14.01,2013-05-09 19:08:00,
2013-05-09 14:13:00,61.0,39.5,29.82,NNE,18,0.0,4.0,45,0.00,,OVC090,0.00,VWS V14.01,2013-05-09 19:13:00,
2013-05-09 14:19:00,61.0,40.6,29.82,North,357,2.7,4.0,47,0.00,,OVC090,0.00,VWS V14.01,2013-05-09 19:19:00,
2013-05-09 14:25:00,60.8,40.5,29.82,North,11,5.8,6.3,47,0.00,,OVC090,0.00,VWS V14.01,2013-05-09 19:25:00,
2013-05-09 14:30:00,60.6,39.8,29.82,North,9,6.3,7.6,46,0.00,,OVC090,0.00,VWS V14.01,2013-05-09 19:30:00,
2013-05-09 14:35:00,60.4,39.6,29.82,North,2,5.4,8.3,46,0.00,,OVC090,0.00,VWS V14.01,2013-05-09 19:35:00,
2013-05-09 14:40:00,60.4,40.7,29.82,North,8,6.3,6.3,48,0.00,,OVC090,0.00,VWS V14.01,2013-05-09 19:40:00,
2013-05-09 14:46:00,60.3,41.0,29.79,North,1,6.3,8.1,49,0.00,,OVC090,0.00,VWS V14.01,2013-05-09 19:46:00,
2013-05-09 14:51:00,60.1,41.4,29.79,NNE,16,2.7,5.8,50,0.00,,OVC090,0.00,VWS V14.01,2013-05-09 19:51:00,
2013-05-09 14:57:00,60.1,41.9,29.79,NNE,16,2.7,6.3,51,0.00,,OVC090,0.00,VWS V14.01,2013-05-09 19:57:00,
2013-05-09 15:02:00,59.9,43.2,29.79,NNE,17,4.0,5.4,54,0.00,,-RA,0.00,VWS V14.01,2013-05-09 20:02:00,
2013-05-09 15:08:00,59.9,44.2,29.79,NNE,25,0.0,3.1,56,0.05,,-RA,0.05,VWS V14.01,2013-05-09 20:08:00,
2013-05-09 15:13:00,59.7,44.9,29.79,North,10,8.3,9.2,58,0.05,,-RA,0.05,VWS V14.01,2013-05-09 20:13:00,
2013-05-09 15:19:00,59.5,44.8,29.79,NNW,346,5.8,6.3,58,0.05,,-RA,0.05,VWS V14.01,2013-05-09 20:19:00,
2013-05-09 15:24:00,59.4,44.1,29.79,North,9,0.0,5.4,57,0.05,,-RA,0.05,VWS V14.01,2013-05-09 20:24:00,
2013-05-09 15:29:00,59.2,44.4,29.79,North,2,2.2,4.9,58,0.05,,-RA,0.05,VWS V14.01,2013-05-09 20:29:00,
2013-05-09 15:34:00,59.2,45.3,29.79,NNE,13,5.8,5.8,60,0.05,,-RA,0.05,VWS V14.01,2013-05-09 20:34:00,
2013-05-09 15:39:00,59.0,45.6,29.79,NNE,12,5.4,8.3,61,0.05,,-RA,0.05,VWS V14.01,2013-05-09 20:39:00,
2013-05-09 15:45:00,58.8,45.8,29.79,NNE,12,5.4,5.4,62,0.05,,-RA,0.05,VWS V14.01,2013-05-09 20:45:00,
2013-05-09 15:50:00,58.6,46.5,29.79,NNE,20,3.1,3.6,64,0.05,,-RA,0.05,VWS V14.01,2013-05-09 20:50:00,
2013-05-09 15:56:00,58.6,47.7,29.79,North,9,5.8,5.8,67,0.05,,-RA,0.05,VWS V14.01,2013-05-09 20:56:00,
2013-05-09 16:01:00,58.5,48.0,29.79,NNE,19,3.6,5.4,68,0.11,,-RA,0.11,VWS V14.01,2013-05-09 21:01:00,
2013-05-09 16:06:00,58.1,47.2,29.79,North,4,7.6,10.1,67,0.11,,-RA,0.11,VWS V14.01,2013-05-09 21:06:00,
2013-05-09 16:11:00,57.7,45.2,29.79,North,6,4.0,4.9,63,0.05,,-RA,0.11,VWS V14.01,2013-05-09 21:11:00,
2013-05-09 16:16:00,57.6,45.1,29.79,NNE,16,10.5,10.5,63,0.05,,-RA,0.11,VWS V14.01,2013-05-09 21:16:00,
2013-05-09 16:22:00,56.8,43.1,29.79,NNE,31,2.7,3.1,60,0.05,,-RA,0.11,VWS V14.01,2013-05-09 21:22:00,
2013-05-09 16:28:00,56.5,42.3,29.79,ENE,63,3.6,3.6,59,0.05,,-RA,0.11,VWS V14.01,2013-05-09 21:28:00,
2013-05-09 16:33:00,55.9,41.8,29.79,NE,39,5.8,5.8,59,0.05,,-RA,0.11,VWS V14.01,2013-05-09 21:33:00,
2013-05-09 16:38:00,55.4,41.8,29.79,NNE,29,0.0,4.0,60,0.05,,-RA,0.11,VWS V14.01,2013-05-09 21:38:00,
2013-05-09 16:43:00,54.9,41.2,29.79,NNE,27,0.0,3.6,60,0.11,,-RA,0.16,VWS V14.01,2013-05-09 21:43:00,
2013-05-09 16:49:00,54.1,40.6,29.79,East,94,0.0,2.2,60,0.11,,-RA,0.16,VWS V14.01,2013-05-09 21:49:00,
2013-05-09 16:55:00,53.6,40.1,29.79,ENE,57,3.6,4.9,60,0.11,,-RA,0.16,VWS V14.01,2013-05-09 21:55:00,
2013-05-09 17:00:00,53.2,40.2,29.79,East,99,2.7,4.0,61,0.05,,-RA,0.16,VWS V14.01,2013-05-09 22:00:00,
2013-05-09 17:06:00,53.1,40.4,29.79,East,91,3.1,4.5,62,0.16,,-RA,0.27,VWS V14.01,2013-05-09 22:06:00,
2013-05-09 17:11:00,52.7,40.5,29.79,NE,56,2.7,5.8,63,0.16,,-RA,0.27,VWS V14.01,2013-05-09 22:11:00,
2013-05-09 17:17:00,52.5,40.7,29.79,ENE,66,7.2,7.2,64,0.16,,-RA,0.27,VWS V14.01,2013-05-09 22:17:00,
2013-05-09 17:22:00,52.3,40.9,29.79,ENE,73,3.6,4.0,65,0.22,,-RA,0.32,VWS V14.01,2013-05-09 22:22:00,
2013-05-09 17:27:00,52.2,41.5,29.79,East,79,3.6,3.6,67,0.22,,-RA,0.32,VWS V14.01,2013-05-09 22:27:00,
2013-05-09 17:32:00,52.2,41.9,29.79,ENE,69,0.0,6.3,68,0.27,,-RA,0.38,VWS V14.01,2013-05-09 22:32:00,
2013-05-09 17:38:00,52.0,41.8,29.79,NE,48,4.0,4.0,68,0.27,,-RA,0.38,VWS V14.01,2013-05-09 22:38:00,
2013-05-09 17:43:00,52.0,42.5,29.79,NE,51,0.0,2.7,70,0.22,,-RA,0.38,VWS V14.01,2013-05-09 22:43:00,
2013-05-09 17:48:00,52.0,42.9,29.79,NE,50,0.0,5.8,71,0.27,,-RA,0.43,VWS V14.01,2013-05-09 22:48:00,
2013-05-09 17:53:00,52.0,42.9,29.79,NNE,28,5.4,5.4,71,0.27,,-RA,0.43,VWS V14.01,2013-05-09 22:53:00,
2013-05-09 17:59:00,52.0,43.2,29.79,East,92,0.0,5.4,72,0.27,,-RA,0.43,VWS V14.01,2013-05-09 22:59:00,
2013-05-09 18:04:00,52.0,43.6,29.79,NE,36,2.7,4.9,73,0.27,,RA,0.43,VWS V14.01,2013-05-09 23:04:00,
2013-05-09 18:10:00,51.8,43.4,29.79,ENE,60,2.7,8.1,73,0.16,,RA,0.43,VWS V14.01,2013-05-09 23:10:00,
2013-05-09 18:16:00,51.8,43.8,29.79,ESE,117,4.9,6.3,74,0.16,,RA,0.43,VWS V14.01,2013-05-09 23:16:00,
2013-05-09 18:21:00,51.8,43.8,29.79,ENE,70,3.1,5.4,74,0.16,,RA,0.49,VWS V14.01,2013-05-09 23:21:00,
2013-05-09 18:26:00,51.8,43.8,29.79,North,353,0.0,3.6,74,0.16,,RA,0.49,VWS V14.01,2013-05-09 23:26:00,
2013-05-09 18:31:00,52.0,44.0,29.79,NNW,342,2.2,4.0,74,0.11,,RA,0.49,VWS V14.01,2013-05-09 23:31:00,
2013-05-09 18:37:00,52.0,44.3,29.79,East,99,3.1,7.6,75,0.11,,RA,0.49,VWS V14.01,2013-05-09 23:37:00,
2013-05-09 18:42:00,52.0,44.3,29.79,East,91,3.6,5.4,75,0.11,,RA,0.49,VWS V14.01,2013-05-09 23:42:00,
2013-05-09 18:48:00,52.0,44.7,29.79,NE,53,5.8,5.8,76,0.11,,RA,0.49,VWS V14.01,2013-05-09 23:48:00,
2013-05-09 18:54:00,52.0,44.7,29.79,ENE,72,2.7,10.5,76,0.11,,RA,0.54,VWS V14.01,2013-05-09 23:54:00,
2013-05-09 18:59:00,52.0,44.7,29.79,NNE,20,3.6,6.3,76,0.11,,RA,0.54,VWS V14.01,2013-05-09 23:59:00,
2013-05-09 19:04:00,52.0,44.7,29.79,ESE,113,2.2,3.6,76,0.11,,-RA,0.54,VWS V14.01,2013-05-10 00:04:00,
2013-05-09 19:09:00,52.0,44.7,29.79,East,100,2.2,4.9,76,0.11,,-RA,0.54,VWS V14.01,2013-05-10 00:09:00,
2013-05-09 19:14:00,52.0,45.0,29.79,East,79,0.0,5.8,77,0.11,,-RA,0.54,VWS V14.01,2013-05-10 00:14:00,
2013-05-09 19:20:00,52.0,45.0,29.79,East,84,5.8,7.6,77,0.05,,-RA,0.54,VWS V14.01,2013-05-10 00:20:00,
2013-05-09 19:26:00,52.0,45.0,29.79,East,95,4.0,5.8,77,0.05,,-RA,0.54,VWS V14.01,2013-05-10 00:26:00,
2013-05-09 19:31:00,52.0,45.3,29.79,ENE,71,3.6,4.0,78,0.11,,-RA,0.59,VWS V14.01,2013-05-10 00:31:00,
2013-05-09 19:37:00,52.0,45.3,29.79,ENE,67,0.0,4.9,78,0.11,,-RA,0.59,VWS V14.01,2013-05-10 00:37:00,
2013-05-09 19:42:00,52.2,45.5,29.79,NE,46,2.2,4.9,78,0.11,,-RA,0.59,VWS V14.01,2013-05-10 00:42:00,
2013-05-09 19:47:00,52.2,45.8,29.79,ESE,108,3.6,4.0,79,0.11,,-RA,0.59,VWS V14.01,2013-05-10 00:47:00,
2013-05-09 19:52:00,52.2,45.8,29.79,ENE,68,3.1,4.9,79,0.05,,-RA,0.59,VWS V14.01,2013-05-10 00:52:00,
2013-05-09 19:57:00,52.2,46.2,29.79,NE,51,0.0,4.0,80,0.05,,-RA,0.59,VWS V14.01,2013-05-10 00:57:00,
2013-05-09 20:02:00,52.3,46.7,29.79,NNW,340,3.6,3.6,81,0.05,,RA,0.59,VWS V14.01,2013-05-10 01:02:00,
2013-05-09 20:07:00,52.3,46.7,29.79,NNE,32,3.6,5.4,81,0.05,,RA,0.59,VWS V14.01,2013-05-10 01:07:00,
2013-05-09 20:12:00,52.3,47.0,29.79,ENE,73,3.1,4.0,82,0.05,,RA,0.59,VWS V14.01,2013-05-10 01:12:00,
2013-05-09 20:17:00,52.2,46.8,29.79,ENE,61,4.0,4.5,82,0.05,,RA,0.59,VWS V14.01,2013-05-10 01:17:00,
2013-05-09 20:23:00,52.2,47.2,29.79,NE,51,2.7,7.6,83,0.05,,RA,0.59,VWS V14.01,2013-05-10 01:23:00,
2013-05-09 20:29:00,52.0,47.0,29.79,NE,54,5.4,5.8,83,0.05,,RA,0.59,VWS V14.01,2013-05-10 01:29:00,
2013-05-09 20:34:00,51.6,46.6,29.79,NE,54,2.7,4.9,83,0.05,,RA,0.65,VWS V14.01,2013-05-10 01:34:00,
2013-05-09 20:39:00,51.4,46.5,29.79,North,6,4.0,4.9,83,0.05,,RA,0.65,VWS V14.01,2013-05-10 01:39:00,
2013-05-09 20:44:00,51.3,46.3,29.79,NNE,19,5.8,8.3,83,0.05,,RA,0.65,VWS V14.01,2013-05-10 01:44:00,
2013-05-09 20:50:00,50.7,45.8,29.79,NE,55,4.9,5.4,83,0.05,,RA,0.65,VWS V14.01,2013-05-10 01:50:00,
2013-05-09 20:55:00,50.5,45.6,29.79,NNE,23,3.1,3.6,83,0.05,,RA,0.65,VWS V14.01,2013-05-10 01:55:00,
2013-05-09 21:01:00,50.4,45.4,29.79,ENE,58,3.6,4.0,83,0.05,,-RA,0.65,VWS V14.01,2013-05-10 02:01:00,
2013-05-09 21:06:00,50.2,45.2,29.79,NE,53,4.0,8.1,83,0.05,,-RA,0.65,VWS V14.01,2013-05-10 02:06:00,
2013-05-09 21:12:00,50.0,45.0,29.79,NE,51,4.9,6.3,83,0.05,,-RA,0.65,VWS V14.01,2013-05-10 02:12:00,
2013-05-09 21:17:00,49.6,44.7,29.79,NNW,341,5.8,7.6,83,0.05,,-RA,0.65,VWS V14.01,2013-05-10 02:17:00,
2013-05-09 21:22:00,49.5,44.5,29.79,NE,50,5.4,12.8,83,0.11,,-RA,0.70,VWS V14.01,2013-05-10 02:22:00,
2013-05-09 21:28:00,49.1,44.2,29.79,North,4,8.3,8.3,83,0.11,,-RA,0.70,VWS V14.01,2013-05-10 02:28:00,
2013-05-09 21:34:00,48.7,43.8,29.79,NE,44,5.8,6.3,83,0.05,,-RA,0.70,VWS V14.01,2013-05-10 02:34:00,
2013-05-09 21:40:00,48.7,43.8,29.79,NNE,27,10.1,10.1,83,0.05,,-RA,0.70,VWS V14.01,2013-05-10 02:40:00,
2013-05-09 21:45:00,48.6,43.6,29.79,East,95,4.9,6.7,83,0.11,,-RA,0.76,VWS V14.01,2013-05-10 02:45:00,
2013-05-09 21:51:00,48.6,43.6,29.79,NNE,28,4.9,7.2,83,0.11,,-RA,0.76,VWS V14.01,2013-05-10 02:51:00,
2013-05-09 21:56:00,48.4,43.5,29.79,ENE,71,5.4,6.7,83,0.11,,-RA,0.76,VWS V14.01,2013-05-10 02:56:00,
2013-05-09 22:01:00,48.0,43.4,29.79,North,357,4.9,11.0,84,0.11,,-RA,0.76,VWS V14.01,2013-05-10 03:01:00,
2013-05-09 22:07:00,47.7,43.1,29.79,NNW,343,10.1,10.1,84,0.16,,-RA,0.81,VWS V14.01,2013-05-10 03:07:00,
2013-05-09 22:12:00,47.5,42.9,29.79,NNE,17,8.7,8.7,84,0.16,,-RA,0.81,VWS V14.01,2013-05-10 03:12:00,
2013-05-09 22:18:00,47.3,42.7,29.79,ENE,67,5.4,14.5,84,0.16,,-RA,0.81,VWS V14.01,2013-05-10 03:18:00,
2013-05-09 22:23:00,47.1,42.5,29.79,ENE,62,5.8,5.8,84,0.11,,-RA,0.81,VWS V14.01,2013-05-10 03:23:00,
2013-05-09 22:29:00,46.9,42.4,29.79,NNE,14,8.3,10.1,84,0.16,,-RA,0.86,VWS V14.01,2013-05-10 03:29:00,
2013-05-09 22:34:00,46.8,42.2,29.79,NNE,30,3.1,5.8,84,0.16,,-RA,0.86,VWS V14.01,2013-05-10 03:34:00,
2013-05-09 22:39:00,46.6,42.3,29.79,ENE,66,3.6,8.7,85,0.16,,-RA,0.86,VWS V14.01,2013-05-10 03:39:00,
2013-05-09 22:44:00,46.4,41.8,29.79,East,82,4.5,10.5,84,0.16,,-RA,0.86,VWS V14.01,2013-05-10 03:44:00,
2013-05-09 22:50:00,46.0,41.8,29.79,NNE,31,7.2,8.7,85,0.16,,-RA,0.92,VWS V14.01,2013-05-10 03:50:00,
2013-05-09 22:56:00,46.0,41.8,29.79,NNE,32,5.8,15.0,85,0.16,,-RA,0.92,VWS V14.01,2013-05-10 03:56:00,
2013-05-09 23:01:00,45.7,41.4,29.79,NE,54,4.0,12.3,85,0.16,,RA,0.92,VWS V14.01,2013-05-10 04:01:00,
2013-05-09 23:02:00,45.7,41.4,29.79,NNE,17,3.1,5.4,85,0.16,,RA,0.92,VWS V14.01,2013-05-10 04:02:00,
2013-05-09 23:03:00,45.5,41.3,29.79,North,353,9.6,9.6,85,0.16,,RA,0.92,VWS V14.01,2013-05-10 04:03:00,
2013-05-09 23:06:00,45.5,41.3,29.79,NNE,28,10.5,10.5,85,0.16,,RA,0.92,VWS V14.01,2013-05-10 04:06:00,
2013-05-09 23:11:00,45.3,41.1,29.79,NE,37,3.1,12.3,85,0.11,,RA,0.92,VWS V14.01,2013-05-10 04:11:00,
2013-05-09 23:16:00,45.1,40.9,29.79,NE,41,2.7,3.6,85,0.11,,RA,0.92,VWS V14.01,2013-05-10 04:16:00,
2013-05-09 23:21:00,45.1,41.2,29.79,North,2,8.1,12.3,86,0.11,,RA,0.92,VWS V14.01,2013-05-10 04:21:00,
2013-05-09 23:26:00,45.0,41.0,29.79,NE,43,0.0,3.6,86,0.16,,RA,0.97,VWS V14.01,2013-05-10 04:26:00,
2013-05-09 23:29:00,45.0,41.0,29.79,North,357,14.5,14.5,86,0.16,,RA,0.97,VWS V14.01,2013-05-10 04:29:00,
2013-05-09 23:35:00,45.0,41.0,29.79,NE,44,6.3,8.3,86,0.11,,RA,0.97,VWS V14.01,2013-05-10 04:35:00,
2013-05-09 23:40:00,44.6,40.7,29.79,North,1,6.3,15.9,86,0.11,,RA,0.97,VWS V14.01,2013-05-10 04:40:00,
2013-05-09 23:46:00,44.2,40.3,29.79,North,357,8.7,12.3,86,0.11,,RA,0.97,VWS V14.01,2013-05-10 04:46:00,
2013-05-09 23:52:00,44.1,40.2,29.79,NNE,31,4.0,9.6,86,0.05,,RA,0.97,VWS V14.01,2013-05-10 04:52:00,
2013-05-09 23:57:00,43.9,40.0,29.79,NE,49,8.3,15.0,86,0.05,,RA,0.97,VWS V14.01,2013-05-10 04:57:00,